Location: Laas
(43.4693°N, 0.3073°E)
Time: 14:44:34
(UTC+00:00)

Cosmos 44 - Pass Details

Date: 25 October 2020
Orbit: 578 x 784 km, 65.1° (Epoch: 25 November)

Event Time Altitude Azimuth Distance (km) Brightness Sun altitude
Rises 18:12:54 0° 216° (SW) 2,840 7.1 -14.0°
Reaches altitude 10° 18:15:05 10° 217° (SW) 1,964 6.2 -14.3°
Maximum altitude 18:19:31 79° 304° (NW) 654 3.2 -15.2°
Drops below altitude 10° 18:24:17 10° 32° (NNE) 2,100 5.5 -16.0°
Enters shadow 18:24:20 10° 32° (NNE) 2,120 5.5 -16.0°
